[[{"header":{"parameterUnit":"m.s-1","parameterCategory":1,"la1":30.2991,"la2":30.254,"lo1":-89.0895,"lo2":-89.0444,"dy":0.0017,"dx":0.0017,"nx":28,"ny":28,"refTime":"2025-11-13T09:00:00:Z","depth":0,"parameterNumber":2,"parameterNumberName":"U-component_of_WINDS"},"data":[0,0,0,0,0,0,0,0,0,0,0,0,0,0,0,0,0,0,0,0,0,0,0,0,0,0,0,0,0,0,0,0,0,0,0,0,0,0,0,0,0,0,0,0,0,0,0,0,0,0,0,0,0,0,0,0,0,0,0.0029,0.0029,0,0.0024,0.0024,0.0024,0.001,0.001,0.001,0.001,0.0004,0.0004,0.0004,0,0,0,0,0,0,0,0,0,0,0,0,0,0.0028,0.0028,0.0029,0.0029,0.0029,0.0024,0.0024,0.0024,0.001,0.001,0.001,0.0009,0.0004,0.0004,0.0004,0,0,0,0,0,0,0,0,0,0,0,0,0,0.0026,0.0028,0.0029,0.0022,0.0021,0.0024,0.0024,0.0024,0.0011,0.001,0.001,0.0009,0.0004,0.0004,0.0004,0.0013,0,0,0.0005,0.0005,0,0,0,0,0,0,0,0,0.0026,0.0026,0.0023,0.0022,0.0021,0.0017,0.0021,0.002,0.0011,0.0015,0.001,0.0009,0.0009,0.0008,0.0008,0.0013,0.0013,0.0005,0.0005,0.0005,0.0005,0,0,0,0,0,0,0,0.0026,0.0026,0.0027,0.0023,0.0022,0.0019,0.0018,0.0021,0.0014,0.0014,0.0013,0.0013,0.0008,0.0008,0.0008,0.0013,0.0005,0.0005,0.0005,0.0005,0.0024,0.0025,0,0,0,0,0,0,0.0027,0.0026,0.0027,0.0027,0.0023,0.0019,0.0018,0.0019,0.0014,0.0013,0.0013,0.0012,0.0008,0.0008,0.0008,0.0018,0.0005,0.0005,0.0005,0.0024,0.0024,0.0025,0,0,0,0,0,0,0.0027,0.0028,0.0027,0.0026,0.0026,0.0019,0.0021,0.0019,0.0019,0.0013,0.0012,0.0014,0.0008,0.0008,0.0012,0.0018,0.0005,0.0005,0.0023,0.0024,0.0025,0.0038,0,0,0,0,0,0,0.0027,0.0028,0.0031,0.0026,0.0026,0.0032,0.0021,0.0019,0.0019,0.0018,0.0014,0.0013,0.0008,0.0012,0.0012,0.0018,0.0005,0.0023,0.0024,0.0024,0.0037,0.0039,0.0041,0,0,0,0,0,0.0027,0.0035,0.0031,0.0032,0.003,0.0032,0.0032,0.0026,0.002,0.0023,0.0019,0.0013,0.0017,0.0012,0.0013,0.0018,0.0023,0.0024,0.0024,0.0036,0.0039,0.0041,0,0,0,0,0,0,0.0041,0.0035,0.003,0.0037,0.0035,0.003,0.0034,0.0028,0.0028,0.0027,0.0019,0.0018,0.0024,0.0021,0.0016,0.0027,0.0019,0.002,0.0028,0.003,0.0032,0.0032,0.0006,0,0,0,0,0,0.0045,0.0047,0.0041,0.0047,0.0047,0.0041,0.0041,0.0036,0.0034,0.0033,0.003,0.0028,0.0029,0.0029,0.003,0.0037,0.0036,0.0041,0.0043,0.0044,0.0045,0.0048,0.005,0.0028,0.0028,0.0028,0,0,0.0052,0.0049,0.0051,0.005,0.0048,0.005,0.004,0.0043,0.0044,0.0034,0.0037,0.0035,0.0032,0.0038,0.004,0.0036,0.0051,0.0045,0.0047,0.0047,0.005,0.0052,0.0054,0.0029,0.0029,0.0028,0,0,0.0068,0.0066,0.007,0.0069,0.0066,0.0062,0.0063,0.0058,0.0056,0.006,0.0052,0.0053,0.0055,0.0053,0.0053,0.0067,0.0061,0.0067,0.0077,0.008,0.0082,0.0083,0.0088,0.0089,0.0068,0.0068,0.0068,0,0.0078,0.008,0.0074,0.0077,0.0076,0.0067,0.0072,0.007,0.0068,0.0068,0.0063,0.0065,0.0062,0.0067,0.0071,0.0071,0.0071,0.0067,0.0082,0.0083,0.0085,0.0089,0.0091,0.0069,0.0069,0.0069,0.0069,0,0.0093,0.0095,0.0099,0.0097,0.0097,0.0101,0.0094,0.0095,0.0091,0.0087,0.009,0.0087,0.0086,0.0087,0.0083,0.0091,0.0089,0.0083,0.0075,0.0088,0.0092,0.0093,0.007,0.007,0.0069,0.0069,0,0,0.0116,0.011,0.0112,0.011,0.0106,0.0108,0.0111,0.011,0.0111,0.011,0.0112,0.0113,0.0108,0.0107,0.0102,0.0105,0.0116,0.0099,0.0099,0.0102,0.0125,0.0129,0.0131,0.0112,0.0112,0.0112,0.0125,0,0.013,0.0135,0.0129,0.0136,0.0137,0.0128,0.0131,0.0129,0.0126,0.0126,0.0122,0.0123,0.0116,0.0116,0.0118,0.0114,0.012,0.0113,0.0114,0.0114,0.0114,0.0133,0.0137,0.0149,0.0126,0.0126,0.0127,0,0.0147,0.0146,0.0153,0.0148,0.0148,0.0151,0.015,0.0151,0.0148,0.0145,0.0144,0.0138,0.0141,0.0133,0.0136,0.0132,0.0131,0.0129,0.013,0.0129,0.0121,0.0132,0.0152,0.0154,0.0129,0.0129,0.0129,0,0.0163,0.0163,0.0167,0.0167,0.0161,0.0163,0.0161,0.0158,0.0158,0.0156,0.0156,0.0155,0.0155,0.0154,0.0148,0.0143,0.0152,0.0144,0.0149,0.0149,0.0151,0.0151,0.0171,0.0152,0.0152,0.0152,0.0152,0,0.0179,0.0183,0.0174,0.0177,0.0181,0.0174,0.0179,0.0176,0.0173,0.0174,0.0166,0.0168,0.016,0.016,0.0156,0.0159,0.0159,0.0156,0.0155,0.0157,0.0157,0.0156,0.0155,0.0152,0.0152,0.0152,0.0152,0,0.0197,0.0192,0.0195,0.019,0.0189,0.0192,0.0187,0.0189,0.0185,0.0187,0.0187,0.018,0.0181,0.0174,0.0173,0.017,0.0175,0.0173,0.0176,0.0175,0.0181,0.018,0.0201,0.0203,0.0183,0.0183,0.0183,0,0.0208,0.0211,0.0205,0.0206,0.0204,0.0205,0.0205,0.0198,0.0198,0.0194,0.0196,0.0196,0.0195,0.0196,0.0191,0.019,0.0187,0.0194,0.0187,0.0188,0.0186,0.0186,0.0186,0.0196,0.0196,0.0196,0.0196,0,0.0226,0.0223,0.0223,0.0222,0.0222,0.0221,0.0219,0.022,0.0212,0.0212,0.0212,0.0212,0.0211,0.021,0.0208,0.0206,0.02,0.0199,0.02,0.0202,0.0203,0.0202,0.018,0.0198,0.0198,0.0198,0.0198,0.0198,0.0241,0.0243,0.0239,0.0239,0.0237,0.0236,0.0237,0.0233,0.0233,0.0231,0.0227,0.0228,0.0225,0.0221,0.0219,0.022,0.0216,0.0218,0.0218,0.0218,0.0219,0.0204,0.0219,0.0219,0.0219,0.0219,0.0219,0,0.0259,0.0256,0.0256,0.0254,0.0254,0.0248,0.0246,0.0246,0.0247,0.0244,0.0243,0.0243,0.0243,0.0238,0.0236,0.0237,0.0234,0.0237,0.0237,0.0236,0.0223,0.0222,0.0239,0.0239,0.0239,0.0239,0.0239,0.0239,0.0268,0.0271,0.0268,0.027,0.0267,0.0267,0.0266,0.0265,0.0263,0.0263,0.0262,0.0259,0.0255,0.0253,0.0252,0.0251,0.025,0.0254,0.0252,0.0239,0.0237,0.0235,0.0234,0.0254,0.0254,0.0265,0.0265,0.0265]},{"header":{"parameterUnit":"m.s-1","parameterCategory":1,"la1":30.2991,"la2":30.254,"lo1":-89.0895,"lo2":-89.0444,"dy":0.0017,"dx":0.0017,"nx":28,"ny":28,"refTime":"2025-11-13T09:00:00:Z","depth":0,"parameterNumber":3,"parameterNumberName":"V-component_of_WINDS"},"data":[0,0,0,0,0,0,0,0,0,0,0,0,0,0,0,0,0,0,0,0,0,0,0,0,0,0,0,0,0,0,0,0,0,0,0,0,0,0,0,0,0,0,0,0,0,0,0,0,0,0,0,0,0,0,0,0,0,0,-1.5931,-1.5931,0,-1.5977,-1.5978,-1.5978,-1.5981,-1.5981,-1.598,-1.598,-1.6025,-1.6027,-1.6028,0,0,0,0,0,0,0,0,0,0,0,0,0,-1.5844,-1.5846,-1.5931,-1.5931,-1.5932,-1.5977,-1.5978,-1.5978,-1.5982,-1.5981,-1.598,-1.598,-1.6024,-1.6026,-1.6028,0,0,0,0,0,0,0,0,0,0,0,0,0,-1.5885,-1.5846,-1.5931,-1.5939,-1.594,-1.5977,-1.5978,-1.5979,-1.5982,-1.5981,-1.598,-1.5979,-1.6024,-1.6026,-1.6029,-1.6059,0,0,-1.6036,-1.6037,0,0,0,0,0,0,0,0,-1.5883,-1.5888,-1.5937,-1.5939,-1.594,-1.5973,-1.5964,-1.6006,-1.5982,-1.5966,-1.598,-1.5979,-1.6008,-1.6012,-1.6022,-1.6062,-1.6064,-1.6037,-1.6038,-1.6039,-1.604,0,0,0,0,0,0,0,-1.588,-1.5886,-1.5949,-1.5938,-1.594,-1.594,-1.5945,-1.5972,-1.5991,-1.5967,-1.5968,-1.5973,-1.6009,-1.602,-1.6023,-1.6064,-1.6037,-1.6039,-1.604,-1.6041,-1.6134,-1.6134,0,0,0,0,0,0,-1.5876,-1.5884,-1.5948,-1.595,-1.5909,-1.5942,-1.5948,-1.5963,-1.599,-1.5994,-1.5974,-1.5973,-1.6016,-1.602,-1.6025,-1.6064,-1.6039,-1.6042,-1.6043,-1.6133,-1.6134,-1.6135,0,0,0,0,0,0,-1.5874,-1.5881,-1.5946,-1.5917,-1.5926,-1.5945,-1.5962,-1.5964,-1.5975,-1.5995,-1.5999,-1.5982,-1.6015,-1.6021,-1.6052,-1.6066,-1.6043,-1.6045,-1.6131,-1.6133,-1.6134,-1.6142,0,0,0,0,0,0,-1.5871,-1.5881,-1.5893,-1.5918,-1.5927,-1.5972,-1.5962,-1.5966,-1.598,-1.598,-1.6004,-1.6007,-1.6015,-1.6048,-1.6054,-1.6069,-1.6047,-1.613,-1.6132,-1.6134,-1.6141,-1.6144,-1.6146,0,0,0,0,0,-1.5868,-1.5892,-1.5893,-1.5901,-1.5943,-1.5973,-1.5978,-1.5988,-1.5981,-1.5993,-1.6007,-1.6006,-1.6063,-1.6051,-1.6058,-1.6074,-1.6129,-1.6132,-1.6134,-1.6139,-1.6143,-1.6146,0,0,0,0,0,0,-1.5867,-1.5895,-1.5897,-1.5929,-1.5949,-1.5973,-1.5989,-1.5991,-1.6012,-1.6011,-1.6021,-1.6027,-1.6057,-1.6068,-1.6054,-1.6106,-1.6096,-1.6099,-1.6097,-1.6101,-1.6104,-1.61,-1.6049,0,0,0,0,0,-1.587,-1.5893,-1.5916,-1.5943,-1.5953,-1.5969,-1.5982,-1.5989,-1.6009,-1.6017,-1.6032,-1.6051,-1.6073,-1.6088,-1.6109,-1.6142,-1.6148,-1.6157,-1.616,-1.6162,-1.6165,-1.6185,-1.6189,-1.6142,-1.6142,-1.6142,0,0,-1.5877,-1.5896,-1.5909,-1.5943,-1.5959,-1.5982,-1.5976,-1.6,-1.6017,-1.602,-1.605,-1.6062,-1.6084,-1.6117,-1.6131,-1.6127,-1.6179,-1.6164,-1.6166,-1.6168,-1.6187,-1.6192,-1.6196,-1.6143,-1.6143,-1.6143,0,0,-1.5903,-1.5919,-1.5943,-1.596,-1.5984,-1.5996,-1.6002,-1.6026,-1.6035,-1.6065,-1.6069,-1.6089,-1.6127,-1.6143,-1.6157,-1.6191,-1.6192,-1.6197,-1.6212,-1.6231,-1.6235,-1.6238,-1.6252,-1.6256,-1.62,-1.62,-1.62,0,-1.5908,-1.5944,-1.5955,-1.5981,-1.5996,-1.6001,-1.6026,-1.6041,-1.6071,-1.6082,-1.6076,-1.6126,-1.6141,-1.6178,-1.6187,-1.6197,-1.6204,-1.6195,-1.6233,-1.6237,-1.624,-1.6253,-1.6258,-1.6201,-1.6201,-1.6201,-1.6201,0,-1.595,-1.5975,-1.5992,-1.6023,-1.604,-1.6065,-1.608,-1.6096,-1.6102,-1.6113,-1.6146,-1.6164,-1.6191,-1.62,-1.6204,-1.6238,-1.6235,-1.6231,-1.6221,-1.6245,-1.6258,-1.6263,-1.6202,-1.6202,-1.6201,-1.6201,0,0,-1.5974,-1.6013,-1.6019,-1.6034,-1.6062,-1.6081,-1.6107,-1.6134,-1.6148,-1.6169,-1.6192,-1.6225,-1.6223,-1.6238,-1.6244,-1.6261,-1.6289,-1.6256,-1.6257,-1.6263,-1.6329,-1.6332,-1.6337,-1.629,-1.6291,-1.6292,-1.6328,0,-1.6003,-1.605,-1.6062,-1.6102,-1.6126,-1.6132,-1.6155,-1.6175,-1.6187,-1.6209,-1.6222,-1.6247,-1.6241,-1.6251,-1.6268,-1.6282,-1.6303,-1.628,-1.6311,-1.6312,-1.6306,-1.6344,-1.6346,-1.6379,-1.6332,-1.6333,-1.6334,0,-1.6043,-1.6067,-1.6109,-1.6137,-1.6147,-1.6168,-1.6195,-1.6215,-1.6239,-1.6246,-1.6265,-1.627,-1.6298,-1.6287,-1.6325,-1.631,-1.6323,-1.6333,-1.6334,-1.6338,-1.6325,-1.6349,-1.639,-1.6395,-1.6341,-1.6341,-1.634,0,-1.6058,-1.61,-1.6132,-1.6144,-1.6176,-1.6191,-1.6205,-1.6228,-1.6244,-1.6267,-1.6278,-1.6304,-1.6318,-1.6338,-1.6351,-1.6342,-1.639,-1.6379,-1.6397,-1.6397,-1.6407,-1.6406,-1.6451,-1.6415,-1.6415,-1.6415,-1.6414,0,-1.6089,-1.6115,-1.6139,-1.6158,-1.6188,-1.6202,-1.6231,-1.6246,-1.6266,-1.6289,-1.6295,-1.6316,-1.6332,-1.6355,-1.6365,-1.6397,-1.6403,-1.641,-1.6413,-1.641,-1.6409,-1.6419,-1.6417,-1.6416,-1.6416,-1.6415,-1.6415,0,-1.611,-1.6127,-1.6162,-1.6191,-1.6199,-1.622,-1.6244,-1.6264,-1.6277,-1.6306,-1.6313,-1.6334,-1.6362,-1.6377,-1.6411,-1.6418,-1.6454,-1.6454,-1.6446,-1.6447,-1.6465,-1.6464,-1.6519,-1.6527,-1.6485,-1.6485,-1.6485,0,-1.6129,-1.6149,-1.6181,-1.6198,-1.6213,-1.6238,-1.6255,-1.6271,-1.6288,-1.6318,-1.6334,-1.6363,-1.6386,-1.6431,-1.6449,-1.6476,-1.6478,-1.6495,-1.6482,-1.6479,-1.6479,-1.6478,-1.6481,-1.6497,-1.6498,-1.6498,-1.6498,0,-1.6161,-1.6169,-1.6194,-1.6223,-1.6244,-1.6267,-1.629,-1.6303,-1.6322,-1.6341,-1.6371,-1.639,-1.6426,-1.6455,-1.6484,-1.6498,-1.6502,-1.6503,-1.6509,-1.6506,-1.6501,-1.6505,-1.6453,-1.6501,-1.6501,-1.6501,-1.6501,-1.6501,-1.6182,-1.6202,-1.6228,-1.6256,-1.6276,-1.6297,-1.6318,-1.6335,-1.636,-1.6391,-1.6399,-1.643,-1.6455,-1.6494,-1.651,-1.6535,-1.6531,-1.6539,-1.6542,-1.6544,-1.6545,-1.6497,-1.654,-1.654,-1.654,-1.654,-1.654,0,-1.6216,-1.6234,-1.626,-1.6293,-1.6315,-1.6318,-1.6344,-1.6363,-1.6391,-1.6414,-1.6438,-1.6473,-1.6501,-1.6523,-1.6552,-1.6568,-1.657,-1.6575,-1.6574,-1.6578,-1.6546,-1.6538,-1.6573,-1.6573,-1.6573,-1.6573,-1.6573,-1.6573,-1.6236,-1.627,-1.6281,-1.6325,-1.6342,-1.6374,-1.6389,-1.641,-1.6428,-1.6468,-1.6492,-1.6506,-1.6529,-1.656,-1.6587,-1.6592,-1.6603,-1.6608,-1.6614,-1.6583,-1.658,-1.6576,-1.657,-1.661,-1.661,-1.6644,-1.6644,-1.6644]}]]